Вернуться в каталог

IRIDIUM 33 DEB

АктивенPO
NORAD 46734·DEBRIS·🇺🇸 United States

Запущен Sep 14, 1997 с Baikonur Cosmodrome

Loading…

Ближайшие Пролёты (ближайшие 24 часа)

TLE

УстаревающийSource: Space-Track

Эпоха: Sep 6, 2026, 06:35 UTC

1 46734U 97051ABR 26249.27443493  .00001384  00000-0  40057-3 0  9990
2 46734  86.2584 245.2183 0039366 164.2144 252.2692 14.43393979668687

Отслеживайте IRIDIUM 33 DEB в реальном времени с AllMySat

Download on the App Store